This is the latest recevied weather packets stored in our database for station/object KE1THD. If no packets are shown the sender has not sent any weather packets the latest 10 day(s).
| Time | Temp. | Humidity | Pressure | Rain* | Wind** | Luminosity | Snow |
|---|---|---|---|---|---|---|---|
| 1777855645 | 20.56° C | 43% | 1005.6 hPa | 0 mm | - | 10 W/m² | - |
| 1777855341 | 20.56° C | 43% | 1005.6 hPa | 0 mm | - | 13 W/m² | - |
| 1777855038 | 20.56° C | 44% | 1005.6 hPa | 0 mm | - | 18 W/m² | - |
| 1777854735 | 21.11° C | 44% | 1005.7 hPa | 0 mm | - | 20 W/m² | - |
| 1777854432 | 21.11° C | 42% | 1005.5 hPa | 0 mm | - | 24 W/m² | - |
| 1777854129 | 21.67° C | 42% | 1005.5 hPa | 0 mm | - | 31 W/m² | - |
| 1777853827 | 21.67° C | 42% | 1005.4 hPa | 0 mm | - | 35 W/m² | - |
| 1777853523 | 21.67° C | 43% | 1005.6 hPa | 0 mm | - | 39 W/m² | - |
| 1777853220 | 21.67° C | 42% | 1005.7 hPa | 0 mm | - | 43 W/m² | - |
| 1777852917 | 21.67° C | 42% | 1005.5 hPa | 0 mm | - | 49 W/m² | - |
| 1777852615 | 21.67° C | 42% | 1005.5 hPa | 0 mm | - | 62 W/m² | - |
| 1777852311 | 21.67° C | 43% | 1005.3 hPa | 0 mm | - | 74 W/m² | - |
| 1777852010 | 21.67° C | 42% | 1005.6 hPa | 0 mm | - | 81 W/m² | - |
| 1777851708 | 21.67° C | 43% | 1005.6 hPa | 0 mm | - | 93 W/m² | - |
| 1777851404 | 22.22° C | 43% | 1005.6 hPa | 0 mm | - | 106 W/m² | - |
| 1777851100 | 22.22° C | 42% | 1005.8 hPa | 0 mm | - | 119 W/m² | - |
| 1777850797 | 22.22° C | 42% | 1005.8 hPa | 0 mm | - | 134 W/m² | - |
| 1777850494 | 22.22° C | 43% | 1005.8 hPa | 0 mm | - | 132 W/m² | - |
| 1777850192 | 21.67° C | 43% | 1005.7 hPa | 0 mm | - | 154 W/m² | - |
| 1777849888 | 21.67° C | 43% | 1005.7 hPa | 0 mm | - | 173 W/m² | - |
| 1777849585 | 21.67° C | 43% | 1006 hPa | 0 mm | - | 173 W/m² | - |
| 1777849283 | 21.67° C | 43% | 1005.9 hPa | 0 mm | - | 193 W/m² | - |
| 1777848980 | 22.22° C | 42% | 1005.9 hPa | 0 mm | - | 206 W/m² | - |
| 1777848679 | 22.22° C | 43% | 1005.9 hPa | 0 mm | - | 235 W/m² | - |
| 1777848377 | 22.22° C | 42% | 1005.8 hPa | 0 mm | - | 248 W/m² | - |
* Rain latest hour (hover to see other rain measurements)
** Current wind speed in m/s (hover to see current wind gust speed)